Time,TemperatureF,DewpointF,PressureIn,WindDirection,WindDirectionDegrees,WindSpeedMPH,WindSpeedGustMPH,Humidity,HourlyPrecipIn,Conditions,Clouds,dailyrainin,SoftwareType,DateUTC
2013-04-22 00:01:00,65.3,58.5,30.03,North,0,5.4,8.7,79,0.00,,---,0.00,VWS V14.01,2013-04-22 04:01:00,
2013-04-22 00:06:00,65.3,58.2,30.03,East,97,6.3,15.4,78,0.00,,---,0.00,VWS V14.01,2013-04-22 04:06:00,
2013-04-22 00:11:00,65.3,57.8,30.03,NW,312,7.6,11.9,77,0.00,,---,0.00,VWS V14.01,2013-04-22 04:11:00,
2013-04-22 00:16:00,65.3,58.2,30.03,NNE,29,5.4,8.3,78,0.00,,---,0.00,VWS V14.01,2013-04-22 04:16:00,
2013-04-22 00:21:00,65.3,58.5,30.03,North,0,6.3,8.7,79,0.00,,---,0.00,VWS V14.01,2013-04-22 04:21:00,
2013-04-22 00:26:00,65.3,59.3,30.03,ENE,68,5.4,10.1,81,0.00,,---,0.00,VWS V14.01,2013-04-22 04:26:00,
2013-04-22 00:31:00,65.3,59.3,30.03,North,9,5.4,5.4,81,0.00,,---,0.00,VWS V14.01,2013-04-22 04:31:00,
2013-04-22 00:36:00,65.1,59.1,30.03,ENE,63,4.9,6.7,81,0.00,,---,0.00,VWS V14.01,2013-04-22 04:36:00,
2013-04-22 00:41:00,65.1,59.5,30.03,NNE,21,3.6,4.9,82,0.00,,---,0.00,VWS V14.01,2013-04-22 04:41:00,
2013-04-22 00:46:00,65.1,59.8,30.03,NE,50,9.6,10.5,83,0.00,,---,0.00,VWS V14.01,2013-04-22 04:46:00,
2013-04-22 00:51:00,65.1,59.8,30.03,NE,43,10.5,10.5,83,0.00,,---,0.00,VWS V14.01,2013-04-22 04:51:00,
2013-04-22 00:56:00,65.1,59.8,30.03,NW,311,3.6,12.8,83,0.00,,---,0.00,VWS V14.01,2013-04-22 04:56:00,
2013-04-22 01:01:00,65.1,59.8,30.03,North,0,2.2,6.3,83,0.00,,---,0.00,VWS V14.01,2013-04-22 05:01:00,
2013-04-22 01:06:00,65.3,60.0,30.03,NNE,32,7.6,13.2,83,0.00,,---,0.00,VWS V14.01,2013-04-22 05:06:00,
2013-04-22 01:11:00,65.3,60.0,30.00,ENE,62,4.9,17.0,83,0.00,,---,0.00,VWS V14.01,2013-04-22 05:11:00,
2013-04-22 01:16:00,65.3,60.0,30.00,ESE,102,3.1,7.6,83,0.00,,---,0.00,VWS V14.01,2013-04-22 05:16:00,
2013-04-22 01:21:00,65.5,60.2,30.00,NE,39,3.6,9.6,83,0.00,,---,0.00,VWS V14.01,2013-04-22 05:21:00,
2013-04-22 01:26:00,65.5,60.2,30.00,ENE,66,5.4,8.3,83,0.00,,---,0.00,VWS V14.01,2013-04-22 05:26:00,
2013-04-22 01:31:00,65.5,60.2,30.00,NE,41,11.0,11.0,83,0.00,,---,0.00,VWS V14.01,2013-04-22 05:31:00,
2013-04-22 01:36:00,65.5,60.2,30.00,NE,55,4.5,8.1,83,0.00,,---,0.00,VWS V14.01,2013-04-22 05:36:00,
2013-04-22 01:41:00,65.5,60.2,30.00,ENE,70,6.7,8.1,83,0.00,,---,0.00,VWS V14.01,2013-04-22 05:41:00,
2013-04-22 01:46:00,65.5,60.5,30.00,NNW,346,7.6,8.3,84,0.00,,---,0.00,VWS V14.01,2013-04-22 05:46:00,
2013-04-22 01:51:00,65.5,60.5,30.00,NNE,33,7.6,13.2,84,0.00,,---,0.00,VWS V14.01,2013-04-22 05:51:00,
2013-04-22 01:56:00,65.5,60.5,30.00,NE,37,4.0,4.5,84,0.00,,---,0.00,VWS V14.01,2013-04-22 05:56:00,
2013-04-22 02:01:00,65.5,60.9,30.00,North,9,17.0,17.0,85,0.00,,---,0.00,VWS V14.01,2013-04-22 06:01:00,
2013-04-22 02:06:00,65.5,60.9,30.00,ENE,67,6.3,13.2,85,0.00,,---,0.00,VWS V14.01,2013-04-22 06:06:00,
2013-04-22 02:11:00,65.3,60.7,30.00,North,357,4.9,4.9,85,0.00,,---,0.00,VWS V14.01,2013-04-22 06:11:00,
2013-04-22 02:16:00,65.3,61.0,30.00,NNE,21,4.0,7.6,86,0.00,,---,0.00,VWS V14.01,2013-04-22 06:16:00,
2013-04-22 02:21:00,65.3,61.4,30.00,NNE,21,6.3,6.3,87,0.00,,---,0.00,VWS V14.01,2013-04-22 06:21:00,
2013-04-22 02:26:00,65.3,61.4,30.00,East,87,3.1,8.3,87,0.00,,---,0.00,VWS V14.01,2013-04-22 06:26:00,
2013-04-22 02:31:00,65.3,61.0,30.00,NE,50,3.6,11.0,86,0.00,,---,0.00,VWS V14.01,2013-04-22 06:31:00,
2013-04-22 02:36:00,65.5,61.2,30.00,NE,34,2.2,7.2,86,0.00,,---,0.00,VWS V14.01,2013-04-22 06:36:00,
2013-04-22 02:41:00,65.5,60.9,29.97,NE,39,3.6,9.6,85,0.00,,---,0.00,VWS V14.01,2013-04-22 06:41:00,
2013-04-22 02:46:00,65.5,60.5,29.97,North,353,8.3,8.3,84,0.00,,---,0.00,VWS V14.01,2013-04-22 06:46:00,
2013-04-22 02:51:00,65.7,60.7,29.97,NE,38,8.1,8.3,84,0.00,,---,0.00,VWS V14.01,2013-04-22 06:51:00,
2013-04-22 02:56:00,65.7,60.7,29.97,NNE,32,6.3,8.1,84,0.00,,---,0.00,VWS V14.01,2013-04-22 06:56:00,
2013-04-22 03:01:00,65.7,60.7,29.97,East,90,3.1,5.4,84,0.00,,---,0.00,VWS V14.01,2013-04-22 07:01:00,
2013-04-22 03:06:00,65.7,60.3,29.97,ENE,59,8.1,8.7,83,0.00,,---,0.00,VWS V14.01,2013-04-22 07:06:00,
2013-04-22 03:11:00,65.7,60.3,29.97,NNE,18,5.4,8.7,83,0.00,,---,0.00,VWS V14.01,2013-04-22 07:11:00,
2013-04-22 03:16:00,65.8,60.5,29.97,ENE,70,3.6,5.4,83,0.00,,---,0.00,VWS V14.01,2013-04-22 07:16:00,
2013-04-22 03:21:00,65.8,60.5,29.97,North,8,3.6,8.7,83,0.00,,---,0.00,VWS V14.01,2013-04-22 07:21:00,
2013-04-22 03:26:00,65.8,60.5,29.97,ENE,71,3.1,8.3,83,0.00,,---,0.00,VWS V14.01,2013-04-22 07:26:00,
2013-04-22 03:31:00,65.8,60.5,29.97,NNE,26,3.6,3.6,83,0.00,,---,0.00,VWS V14.01,2013-04-22 07:31:00,
2013-04-22 03:36:00,65.8,60.5,29.97,East,96,5.4,5.8,83,0.00,,---,0.00,VWS V14.01,2013-04-22 07:36:00,
2013-04-22 03:41:00,65.8,60.2,29.97,NNE,19,3.1,5.8,82,0.00,,---,0.00,VWS V14.01,2013-04-22 07:41:00,
2013-04-22 03:46:00,65.8,60.2,29.97,NE,35,10.5,10.5,82,0.00,,---,0.00,VWS V14.01,2013-04-22 07:46:00,
2013-04-22 03:51:00,65.8,60.2,29.97,NNE,29,7.6,10.5,82,0.00,,---,0.00,VWS V14.01,2013-04-22 07:51:00,
2013-04-22 03:56:00,65.8,60.2,29.97,NNW,330,4.0,8.7,82,0.00,,---,0.00,VWS V14.01,2013-04-22 07:56:00,
2013-04-22 04:01:00,65.8,60.2,29.97,NNW,328,5.8,5.8,82,0.00,,---,0.00,VWS V14.01,2013-04-22 08:01:00,
2013-04-22 04:06:00,65.8,60.2,29.97,NE,50,3.6,5.4,82,0.00,,---,0.00,VWS V14.01,2013-04-22 08:06:00,
2013-04-22 04:11:00,65.8,60.5,29.97,NNE,26,3.6,5.8,83,0.00,,---,0.00,VWS V14.01,2013-04-22 08:11:00,
2013-04-22 04:16:00,65.8,60.9,29.97,ENE,60,3.1,6.3,84,0.00,,---,0.00,VWS V14.01,2013-04-22 08:16:00,
2013-04-22 04:21:00,65.7,61.0,29.97,ESE,107,3.1,8.3,85,0.00,,---,0.00,VWS V14.01,2013-04-22 08:21:00,
2013-04-22 04:26:00,65.3,61.0,29.97,NNE,24,4.0,4.0,86,0.00,,---,0.00,VWS V14.01,2013-04-22 08:26:00,
2013-04-22 04:31:00,65.1,61.5,29.97,ENE,71,5.8,7.6,88,0.00,,---,0.00,VWS V14.01,2013-04-22 08:31:00,
2013-04-22 04:36:00,64.8,61.5,29.97,North,357,4.0,4.0,89,0.00,,---,0.00,VWS V14.01,2013-04-22 08:36:00,
2013-04-22 04:41:00,64.8,62.2,29.97,NE,47,4.0,4.9,91,0.00,,---,0.00,VWS V14.01,2013-04-22 08:41:00,
2013-04-22 04:46:00,64.6,62.0,29.97,NE,34,3.1,4.9,91,0.00,,---,0.00,VWS V14.01,2013-04-22 08:46:00,
2013-04-22 04:51:00,64.4,61.8,29.97,North,6,10.5,12.8,91,0.00,,---,0.00,VWS V14.01,2013-04-22 08:51:00,
2013-04-22 04:56:00,64.4,62.5,29.97,NNE,24,4.0,5.4,93,0.00,,---,0.00,VWS V14.01,2013-04-22 08:56:00,
2013-04-22 05:01:00,64.4,62.5,29.97,North,353,3.1,10.1,93,0.00,,---,0.00,VWS V14.01,2013-04-22 09:01:00,
2013-04-22 05:07:00,64.2,62.6,29.97,NNE,22,4.5,6.7,94,0.00,,---,0.00,VWS V14.01,2013-04-22 09:07:00,
2013-04-22 05:12:00,64.2,62.6,29.97,North,2,10.1,10.1,94,0.00,,---,0.00,VWS V14.01,2013-04-22 09:12:00,
2013-04-22 05:17:00,64.2,62.9,29.97,ENE,67,7.6,7.6,96,0.00,,---,0.00,VWS V14.01,2013-04-22 09:17:00,
2013-04-22 05:22:00,64.0,62.8,29.97,NNE,21,7.6,10.5,96,0.00,,---,0.00,VWS V14.01,2013-04-22 09:22:00,
2013-04-22 05:27:00,64.0,62.8,29.97,NNE,26,4.0,6.3,96,0.00,,---,0.00,VWS V14.01,2013-04-22 09:27:00,
2013-04-22 05:32:00,64.0,62.8,29.97,NNE,22,2.7,7.2,96,0.00,,---,0.00,VWS V14.01,2013-04-22 09:32:00,
2013-04-22 05:37:00,63.9,62.6,29.97,North,6,3.1,8.7,96,0.00,,---,0.00,VWS V14.01,2013-04-22 09:37:00,
2013-04-22 05:42:00,63.7,62.4,29.97,NE,48,3.6,8.1,96,0.00,,---,0.00,VWS V14.01,2013-04-22 09:42:00,
2013-04-22 05:47:00,63.5,62.2,29.97,NE,48,11.9,11.9,96,0.00,,---,0.00,VWS V14.01,2013-04-22 09:47:00,
2013-04-22 05:52:00,63.3,62.0,29.97,NNE,16,7.6,9.2,96,0.00,,---,0.00,VWS V14.01,2013-04-22 09:52:00,
2013-04-22 05:57:00,63.3,62.0,29.97,North,9,3.6,3.6,96,0.00,,---,0.00,VWS V14.01,2013-04-22 09:57:00,
2013-04-22 06:02:00,63.1,61.8,29.97,NE,39,3.6,4.0,96,0.00,,---,0.00,VWS V14.01,2013-04-22 10:02:00,
2013-04-22 06:07:00,63.1,61.8,29.97,NNE,26,3.1,3.1,96,0.00,,---,0.00,VWS V14.01,2013-04-22 10:07:00,
2013-04-22 06:12:00,63.1,61.5,29.97,NE,49,5.8,10.1,94,0.00,,---,0.00,VWS V14.01,2013-04-22 10:12:00,
2013-04-22 06:17:00,63.1,61.5,29.97,East,87,0.0,4.0,94,0.00,,---,0.00,VWS V14.01,2013-04-22 10:17:00,
2013-04-22 06:22:00,63.0,61.4,29.97,NNE,18,3.6,8.1,94,0.00,,---,0.00,VWS V14.01,2013-04-22 10:22:00,
2013-04-22 06:27:00,63.0,61.4,29.97,East,91,6.3,8.1,94,0.00,,---,0.00,VWS V14.01,2013-04-22 10:27:00,
2013-04-22 06:32:00,63.0,61.4,29.97,North,353,4.0,4.0,94,0.00,,---,0.00,VWS V14.01,2013-04-22 10:32:00,
2013-04-22 06:37:00,63.0,61.4,29.97,North,10,5.8,9.6,94,0.00,,---,0.00,VWS V14.01,2013-04-22 10:37:00,
2013-04-22 06:42:00,62.8,61.2,29.97,NNW,342,8.1,8.1,94,0.00,,---,0.00,VWS V14.01,2013-04-22 10:42:00,
2013-04-22 06:47:00,62.8,61.2,29.97,North,357,2.7,5.4,94,0.00,,---,0.00,VWS V14.01,2013-04-22 10:47:00,
2013-04-22 06:52:00,62.8,61.2,29.97,NNW,345,3.6,6.3,94,0.00,,---,0.00,VWS V14.01,2013-04-22 10:52:00,
2013-04-22 06:57:00,62.8,61.2,30.00,North,353,4.0,4.9,94,0.00,,---,0.00,VWS V14.01,2013-04-22 10:57:00,
2013-04-22 07:02:00,62.6,61.0,30.00,NNE,12,0.0,4.0,94,0.00,,---,0.00,VWS V14.01,2013-04-22 11:02:00,
2013-04-22 07:07:00,62.6,61.0,30.00,NNE,13,3.6,3.6,94,0.00,,---,0.00,VWS V14.01,2013-04-22 11:07:00,
2013-04-22 07:12:00,62.6,61.0,30.00,West,280,2.2,3.1,94,0.00,,---,0.00,VWS V14.01,2013-04-22 11:12:00,
2013-04-22 07:17:00,62.6,61.3,30.00,NNW,337,0.0,0.0,96,0.00,,---,0.00,VWS V14.01,2013-04-22 11:17:00,
2013-04-22 07:22:00,62.4,61.1,30.00,NNW,341,0.0,0.0,96,0.00,,---,0.00,VWS V14.01,2013-04-22 11:22:00,
2013-04-22 07:27:00,62.4,61.1,30.00,WNW,285,0.0,0.0,96,0.00,,---,0.00,VWS V14.01,2013-04-22 11:27:00,
2013-04-22 07:32:00,62.2,61.0,30.00,NNW,343,0.0,0.0,96,0.00,,---,0.00,VWS V14.01,2013-04-22 11:32:00,
2013-04-22 07:37:00,62.1,60.8,30.00,NNW,335,2.7,3.1,96,0.00,,---,0.00,VWS V14.01,2013-04-22 11:37:00,
2013-04-22 07:42:00,61.9,60.6,30.00,NNE,17,2.2,2.7,96,0.00,,---,0.00,VWS V14.01,2013-04-22 11:42:00,
2013-04-22 07:47:00,61.7,60.4,30.00,North,357,5.4,5.4,96,0.00,,---,0.00,VWS V14.01,2013-04-22 11:47:00,
2013-04-22 07:52:00,61.3,60.1,30.00,North,353,4.0,8.1,96,0.00,,---,0.00,VWS V14.01,2013-04-22 11:52:00,
2013-04-22 07:57:00,61.2,60.2,30.00,NNE,18,16.8,16.8,97,0.00,,---,0.00,VWS V14.01,2013-04-22 11:57:00,
2013-04-22 08:02:00,61.0,60.0,30.00,ENE,74,5.8,5.8,97,0.00,,---,0.00,VWS V14.01,2013-04-22 12:02:00,
2013-04-22 08:07:00,61.2,60.2,30.00,ENE,69,4.0,4.0,97,0.00,,---,0.00,VWS V14.01,2013-04-22 12:07:00,
2013-04-22 08:12:00,61.0,60.3,30.00,ENE,58,3.1,12.8,98,0.00,,---,0.00,VWS V14.01,2013-04-22 12:12:00,
2013-04-22 08:17:00,60.8,60.1,30.00,ENE,69,0.0,0.0,98,0.00,,---,0.00,VWS V14.01,2013-04-22 12:17:00,
2013-04-22 08:22:00,60.8,60.1,30.00,NNE,25,5.8,5.8,98,0.00,,---,0.00,VWS V14.01,2013-04-22 12:22:00,
2013-04-22 08:27:00,60.8,60.1,30.00,NE,39,5.4,8.1,98,0.00,,---,0.00,VWS V14.01,2013-04-22 12:27:00,
2013-04-22 08:32:00,61.0,60.6,30.00,ENE,70,10.5,10.5,99,0.00,,---,0.00,VWS V14.01,2013-04-22 12:32:00,
2013-04-22 08:37:00,60.8,60.4,30.00,East,88,15.0,15.0,99,0.00,,---,0.00,VWS V14.01,2013-04-22 12:37:00,
2013-04-22 08:42:00,60.8,60.1,30.00,ENE,68,4.0,4.0,98,0.00,,---,0.00,VWS V14.01,2013-04-22 12:42:00,
2013-04-22 08:47:00,60.8,60.1,30.00,North,6,12.8,12.8,98,0.00,,---,0.00,VWS V14.01,2013-04-22 12:47:00,
2013-04-22 08:52:00,60.8,60.1,30.00,NE,37,15.9,15.9,98,0.00,,---,0.00,VWS V14.01,2013-04-22 12:52:00,
2013-04-22 08:57:00,60.6,60.3,30.03,NE,50,7.6,7.6,99,0.00,,---,0.00,VWS V14.01,2013-04-22 12:57:00,
2013-04-22 09:02:00,60.6,60.3,30.03,North,357,5.8,8.1,99,0.00,,---,0.00,VWS V14.01,2013-04-22 13:02:00,
2013-04-22 09:07:00,60.8,60.4,30.03,ENE,65,4.9,8.7,99,0.00,,---,0.00,VWS V14.01,2013-04-22 13:07:00,
2013-04-22 09:12:00,60.8,60.4,30.03,NNE,30,4.0,8.3,99,0.00,,---,0.00,VWS V14.01,2013-04-22 13:12:00,
2013-04-22 09:17:00,60.8,60.7,30.03,North,357,3.6,4.9,100,0.00,,---,0.00,VWS V14.01,2013-04-22 13:17:00,
2013-04-22 09:22:00,60.8,60.7,30.03,NNE,27,0.0,3.1,100,0.00,,---,0.00,VWS V14.01,2013-04-22 13:22:00,
2013-04-22 09:27:00,61.0,60.9,30.03,NE,48,0.0,6.3,100,0.00,,---,0.00,VWS V14.01,2013-04-22 13:27:00,
2013-04-22 09:32:00,61.2,61.2,30.03,East,86,3.1,3.1,100,0.00,,---,0.00,VWS V14.01,2013-04-22 13:32:00,
2013-04-22 09:37:00,61.2,61.2,30.03,NNE,25,2.7,2.7,100,0.00,,---,0.00,VWS V14.01,2013-04-22 13:37:00,
2013-04-22 09:42:00,61.2,61.2,30.03,NNE,23,4.0,8.1,100,0.00,,---,0.00,VWS V14.01,2013-04-22 13:42:00,
2013-04-22 09:47:00,61.3,61.3,30.03,North,357,0.0,0.0,100,0.00,,---,0.00,VWS V14.01,2013-04-22 13:47:00,
2013-04-22 09:52:00,61.3,61.3,30.03,NNE,19,5.8,5.8,100,0.00,,---,0.00,VWS V14.01,2013-04-22 13:52:00,
2013-04-22 09:57:00,61.3,61.3,30.03,North,2,6.3,10.5,100,0.00,,---,0.00,VWS V14.01,2013-04-22 13:57:00,
2013-04-22 10:02:00,61.3,61.3,30.03,North,8,4.5,4.5,100,0.00,,---,0.00,VWS V14.01,2013-04-22 14:02:00,
2013-04-22 10:07:00,61.5,61.5,30.03,NNE,19,6.3,6.3,100,0.00,,---,0.00,VWS V14.01,2013-04-22 14:07:00,
2013-04-22 10:12:00,61.5,61.5,30.03,NE,34,5.8,8.1,100,0.00,,---,0.00,VWS V14.01,2013-04-22 14:12:00,
2013-04-22 10:17:00,61.5,61.5,30.03,NNE,30,5.4,5.4,100,0.00,,---,0.00,VWS V14.01,2013-04-22 14:17:00,
2013-04-22 10:22:00,61.5,61.5,30.03,NNE,33,3.6,4.9,100,0.00,,---,0.00,VWS V14.01,2013-04-22 14:22:00,
2013-04-22 10:27:00,61.3,61.3,30.03,NNE,31,3.6,3.6,100,0.00,,---,0.00,VWS V14.01,2013-04-22 14:27:00,
2013-04-22 10:32:00,61.3,61.3,30.03,ENE,63,6.3,6.3,100,0.00,,---,0.00,VWS V14.01,2013-04-22 14:32:00,
2013-04-22 10:37:00,61.2,61.2,30.03,NE,41,7.2,7.2,100,0.00,,---,0.00,VWS V14.01,2013-04-22 14:37:00,
2013-04-22 10:42:00,61.2,61.2,30.03,NNE,33,5.8,12.8,100,0.00,,---,0.00,VWS V14.01,2013-04-22 14:42:00,
2013-04-22 10:47:00,60.8,60.8,30.03,NE,39,5.8,6.3,100,0.00,,---,0.00,VWS V14.01,2013-04-22 14:47:00,
2013-04-22 10:52:00,60.6,60.6,30.03,NNE,23,8.1,8.1,100,0.00,,---,0.00,VWS V14.01,2013-04-22 14:52:00,
2013-04-22 10:57:00,60.8,60.8,30.03,North,353,2.7,2.7,100,0.00,,---,0.00,VWS V14.01,2013-04-22 14:57:00,
2013-04-22 11:02:00,60.6,60.6,30.03,NNE,19,2.7,3.1,100,0.00,,---,0.00,VWS V14.01,2013-04-22 15:02:00,
2013-04-22 11:07:00,60.6,60.6,30.03,NNE,27,4.9,4.9,100,0.00,,---,0.00,VWS V14.01,2013-04-22 15:07:00,
2013-04-22 11:12:00,60.4,60.4,30.03,NE,52,3.6,6.3,100,0.00,,---,0.00,VWS V14.01,2013-04-22 15:12:00,
2013-04-22 11:17:00,60.4,60.4,30.03,NE,54,5.4,7.6,100,0.00,,---,0.00,VWS V14.01,2013-04-22 15:17:00,
2013-04-22 11:22:00,60.1,60.1,30.03,NNW,329,4.9,4.9,100,0.00,,---,0.00,VWS V14.01,2013-04-22 15:22:00,
2013-04-22 11:27:00,60.1,60.1,30.06,NNE,31,6.3,6.3,100,0.00,,---,0.00,VWS V14.01,2013-04-22 15:27:00,
2013-04-22 11:32:00,60.1,60.1,30.06,North,349,4.0,6.3,100,0.00,,---,0.00,VWS V14.01,2013-04-22 15:32:00,
2013-04-22 11:37:00,59.9,59.9,30.06,ENE,57,4.5,5.8,100,0.00,,---,0.00,VWS V14.01,2013-04-22 15:37:00,
2013-04-22 11:42:00,59.9,59.9,30.06,NE,46,11.0,11.0,100,0.00,,---,0.00,VWS V14.01,2013-04-22 15:42:00,
2013-04-22 11:47:00,59.7,59.7,30.06,NE,41,4.9,4.9,100,0.00,,---,0.00,VWS V14.01,2013-04-22 15:47:00,
2013-04-22 11:52:00,59.9,59.9,30.06,NNE,13,6.3,6.3,100,0.00,,---,0.00,VWS V14.01,2013-04-22 15:52:00,
2013-04-22 11:57:00,59.9,59.9,30.06,East,90,0.0,0.0,100,0.00,,---,0.00,VWS V14.01,2013-04-22 15:57:00,
2013-04-22 12:02:00,59.9,59.9,30.06,NE,44,0.0,0.0,100,0.00,,---,0.00,VWS V14.01,2013-04-22 16:02:00,
2013-04-22 12:07:00,59.9,59.9,30.06,NNE,32,5.8,8.1,100,0.00,,---,0.00,VWS V14.01,2013-04-22 16:07:00,
2013-04-22 12:12:00,59.7,59.7,30.06,East,83,2.7,2.7,100,0.00,,---,0.00,VWS V14.01,2013-04-22 16:12:00,
2013-04-22 12:17:00,59.7,59.7,30.06,North,8,6.3,6.3,100,0.00,,---,0.00,VWS V14.01,2013-04-22 16:17:00,
2013-04-22 12:22:00,59.7,59.7,30.06,NNE,25,0.0,7.6,100,0.00,,---,0.00,VWS V14.01,2013-04-22 16:22:00,
2013-04-22 12:27:00,59.7,59.7,30.06,NE,55,3.6,3.6,100,0.00,,---,0.00,VWS V14.01,2013-04-22 16:27:00,
2013-04-22 12:32:00,59.5,59.2,30.06,NNE,17,4.0,4.9,99,0.00,,---,0.00,VWS V14.01,2013-04-22 16:32:00,
2013-04-22 12:37:00,59.5,58.9,30.06,NE,49,7.6,7.6,98,0.00,,---,0.00,VWS V14.01,2013-04-22 16:37:00,
2013-04-22 12:42:00,59.5,58.9,30.06,NNW,328,3.1,3.1,98,0.00,,---,0.00,VWS V14.01,2013-04-22 16:42:00,
2013-04-22 12:47:00,59.5,58.6,30.06,North,357,6.3,6.3,97,0.00,,---,0.00,VWS V14.01,2013-04-22 16:47:00,
2013-04-22 12:52:00,59.5,58.3,30.06,NNE,23,2.7,3.1,96,0.00,,---,0.00,VWS V14.01,2013-04-22 16:52:00,
2013-04-22 12:57:00,59.4,57.8,30.06,NNE,16,3.1,5.4,94,0.00,,---,0.00,VWS V14.01,2013-04-22 16:57:00,
2013-04-22 13:02:00,59.4,57.8,30.06,North,357,3.6,3.6,94,0.00,,---,0.00,VWS V14.01,2013-04-22 17:02:00,
2013-04-22 13:07:00,59.4,57.5,30.06,North,7,2.7,5.8,93,0.00,,---,0.00,VWS V14.01,2013-04-22 17:07:00,
2013-04-22 13:12:00,59.4,57.2,30.06,North,8,6.3,6.3,92,0.00,,---,0.00,VWS V14.01,2013-04-22 17:12:00,
2013-04-22 13:17:00,59.4,56.8,30.06,NNW,344,4.5,4.5,91,0.00,,---,0.00,VWS V14.01,2013-04-22 17:17:00,
2013-04-22 13:22:00,59.4,56.8,30.06,ENE,72,2.7,7.6,91,0.00,,---,0.00,VWS V14.01,2013-04-22 17:22:00,
2013-04-22 13:27:00,59.5,57.0,30.06,North,353,8.1,8.1,91,0.00,,---,0.00,VWS V14.01,2013-04-22 17:27:00,
2013-04-22 13:32:00,59.7,56.9,30.06,NE,35,7.6,7.6,90,0.00,,---,0.00,VWS V14.01,2013-04-22 17:32:00,
2013-04-22 13:37:00,59.7,56.6,30.06,NNE,32,3.1,7.6,89,0.00,,---,0.00,VWS V14.01,2013-04-22 17:37:00,
2013-04-22 13:42:00,59.7,56.2,30.03,NNE,24,5.8,9.2,88,0.00,,---,0.00,VWS V14.01,2013-04-22 17:42:00,
2013-04-22 13:47:00,59.7,55.9,30.03,NNE,19,10.1,10.1,87,0.00,,---,0.00,VWS V14.01,2013-04-22 17:47:00,
2013-04-22 13:52:00,59.7,55.2,30.03,ENE,65,4.0,7.6,85,0.00,,---,0.00,VWS V14.01,2013-04-22 17:52:00,
2013-04-22 13:57:00,60.1,55.2,30.03,North,357,13.2,13.2,84,0.00,,---,0.00,VWS V14.01,2013-04-22 17:57:00,
2013-04-22 14:02:00,60.3,54.7,30.03,East,82,10.5,10.5,82,0.00,,---,0.00,VWS V14.01,2013-04-22 18:02:00,
2013-04-22 14:07:00,60.4,54.5,30.03,NNW,341,7.2,7.2,81,0.00,,---,0.00,VWS V14.01,2013-04-22 18:07:00,
2013-04-22 14:12:00,60.6,54.4,30.03,North,357,3.6,3.6,80,0.00,,---,0.00,VWS V14.01,2013-04-22 18:12:00,
2013-04-22 14:17:00,60.6,54.0,30.03,NNE,13,3.1,5.4,79,0.00,,---,0.00,VWS V14.01,2013-04-22 18:17:00,
2013-04-22 14:22:00,60.8,53.0,30.03,NW,308,4.0,8.7,76,0.00,,---,0.00,VWS V14.01,2013-04-22 18:22:00,
2013-04-22 14:27:00,61.0,53.6,30.03,ENE,66,4.0,5.8,77,0.00,,---,0.00,VWS V14.01,2013-04-22 18:27:00,
2013-04-22 14:32:00,61.2,53.0,30.03,East,84,4.9,6.3,75,0.00,,---,0.00,VWS V14.01,2013-04-22 18:32:00,
2013-04-22 14:37:00,61.2,51.5,30.03,NE,41,9.6,9.6,70,0.00,,---,0.00,VWS V14.01,2013-04-22 18:37:00,
2013-04-22 14:42:00,61.2,50.6,30.03,NNW,338,3.6,10.1,68,0.00,,---,0.00,VWS V14.01,2013-04-22 18:42:00,
2013-04-22 14:47:00,61.3,50.4,30.03,NNE,30,3.1,11.0,67,0.00,,---,0.00,VWS V14.01,2013-04-22 18:47:00,
2013-04-22 14:52:00,61.3,50.0,30.03,NE,45,11.9,11.9,66,0.00,,---,0.00,VWS V14.01,2013-04-22 18:52:00,
2013-04-22 14:57:00,61.3,50.4,30.03,North,11,11.0,11.0,67,0.00,,---,0.00,VWS V14.01,2013-04-22 18:57:00,
2013-04-22 15:02:00,61.3,50.4,30.03,NE,45,5.4,10.1,67,0.00,,---,0.00,VWS V14.01,2013-04-22 19:02:00,
2013-04-22 15:07:00,61.3,50.4,30.03,ENE,74,7.6,9.6,67,0.00,,---,0.00,VWS V14.01,2013-04-22 19:07:00,
2013-04-22 15:12:00,61.3,49.1,30.03,NNE,20,4.0,4.0,64,0.00,,---,0.00,VWS V14.01,2013-04-22 19:12:00,
2013-04-22 15:17:00,61.5,49.7,30.03,North,357,10.5,10.5,65,0.00,,---,0.00,VWS V14.01,2013-04-22 19:17:00,
2013-04-22 15:22:00,61.5,48.4,30.03,NNE,15,9.2,9.2,62,0.00,,---,0.00,VWS V14.01,2013-04-22 19:22:00,
2013-04-22 15:27:00,61.5,49.3,30.03,North,353,4.0,9.6,64,0.00,,---,0.00,VWS V14.01,2013-04-22 19:27:00,
2013-04-22 15:32:00,61.5,48.4,30.03,ENE,59,3.1,6.3,62,0.00,,---,0.00,VWS V14.01,2013-04-22 19:32:00,
2013-04-22 15:37:00,61.7,49.4,30.03,NE,42,8.3,8.3,64,0.00,,---,0.00,VWS V14.01,2013-04-22 19:37:00,
2013-04-22 15:42:00,61.7,48.5,30.03,NNE,23,6.3,12.8,62,0.00,,---,0.00,VWS V14.01,2013-04-22 19:42:00,
2013-04-22 15:47:00,61.5,47.0,30.03,NE,51,5.4,5.8,59,0.00,,---,0.00,VWS V14.01,2013-04-22 19:47:00,
2013-04-22 15:52:00,61.5,47.0,30.03,NNE,21,10.5,10.5,59,0.00,,---,0.00,VWS V14.01,2013-04-22 19:52:00,
2013-04-22 15:57:00,61.7,47.2,30.03,North,357,4.0,4.0,59,0.00,,---,0.00,VWS V14.01,2013-04-22 19:57:00,
2013-04-22 16:02:00,61.9,46.8,30.03,East,100,4.0,7.6,58,0.00,,---,0.00,VWS V14.01,2013-04-22 20:02:00,
2013-04-22 16:07:00,61.7,46.7,30.03,North,7,5.4,5.4,58,0.00,,---,0.00,VWS V14.01,2013-04-22 20:07:00,
2013-04-22 16:12:00,61.7,46.7,30.03,North,350,5.8,7.6,58,0.00,,---,0.00,VWS V14.01,2013-04-22 20:12:00,
2013-04-22 16:17:00,61.9,47.3,30.03,NE,52,6.3,11.0,59,0.00,,---,0.00,VWS V14.01,2013-04-22 20:17:00,
2013-04-22 16:22:00,62.1,47.5,30.03,NE,45,5.4,8.7,59,0.00,,---,0.00,VWS V14.01,2013-04-22 20:22:00,
2013-04-22 16:27:00,62.1,47.5,30.00,NNE,26,3.6,4.0,59,0.00,,---,0.00,VWS V14.01,2013-04-22 20:27:00,
2013-04-22 16:32:00,62.2,47.2,30.00,ENE,62,3.6,4.0,58,0.00,,---,0.00,VWS V14.01,2013-04-22 20:32:00,
2013-04-22 16:37:00,62.2,45.2,30.00,NNE,15,3.6,5.8,54,0.00,,---,0.00,VWS V14.01,2013-04-22 20:37:00,
2013-04-22 16:42:00,62.6,45.0,30.00,North,0,10.1,10.1,52,0.00,,---,0.00,VWS V14.01,2013-04-22 20:42:00,
2013-04-22 16:47:00,62.8,45.2,30.00,NNE,19,9.6,9.6,52,0.00,,---,0.00,VWS V14.01,2013-04-22 20:47:00,
2013-04-22 16:52:00,62.8,46.2,30.00,NE,51,3.1,4.0,55,0.00,,---,0.00,VWS V14.01,2013-04-22 20:52:00,
2013-04-22 16:57:00,62.8,45.2,30.00,NNW,343,3.1,4.0,52,0.00,,---,0.00,VWS V14.01,2013-04-22 20:57:00,
2013-04-22 17:02:00,63.0,45.3,30.00,North,357,5.4,8.1,52,0.00,,---,0.00,VWS V14.01,2013-04-22 21:02:00,
2013-04-22 17:07:00,62.8,43.5,30.00,NE,42,6.3,14.5,49,0.00,,---,0.00,VWS V14.01,2013-04-22 21:07:00,
2013-04-22 17:12:00,63.0,44.8,30.00,NNW,332,8.7,12.8,51,0.00,,---,0.00,VWS V14.01,2013-04-22 21:12:00,
2013-04-22 17:17:00,63.0,44.3,30.00,NNE,19,10.1,10.1,50,0.00,,---,0.00,VWS V14.01,2013-04-22 21:17:00,
2013-04-22 17:22:00,63.0,43.7,30.00,North,10,5.4,5.4,49,0.00,,---,0.00,VWS V14.01,2013-04-22 21:22:00,
2013-04-22 17:27:00,63.0,44.3,30.00,NE,40,3.6,3.6,50,0.00,,---,0.00,VWS V14.01,2013-04-22 21:27:00,
2013-04-22 17:32:00,63.0,44.8,30.00,ENE,68,6.3,6.3,51,0.00,,---,0.00,VWS V14.01,2013-04-22 21:32:00,
2013-04-22 17:37:00,63.1,44.4,30.00,East,85,4.9,5.8,50,0.00,,---,0.00,VWS V14.01,2013-04-22 21:37:00,
2013-04-22 17:42:00,63.1,43.9,30.00,NW,319,0.0,2.2,49,0.00,,---,0.00,VWS V14.01,2013-04-22 21:42:00,
2013-04-22 17:47:00,63.3,44.0,30.00,NNE,17,6.3,6.3,49,0.00,,---,0.00,VWS V14.01,2013-04-22 21:47:00,
2013-04-22 17:52:00,63.5,43.1,30.00,NE,44,4.0,5.4,47,0.00,,---,0.00,VWS V14.01,2013-04-22 21:52:00,
2013-04-22 17:57:00,64.0,44.1,30.00,ENE,61,8.7,8.7,48,0.00,,---,0.00,VWS V14.01,2013-04-22 21:57:00,
2013-04-22 18:02:00,64.0,43.6,30.00,NE,35,5.8,5.8,47,0.00,,---,0.00,VWS V14.01,2013-04-22 22:02:00,
2013-04-22 18:07:00,63.9,42.8,30.00,NE,48,5.4,7.6,46,0.00,,---,0.00,VWS V14.01,2013-04-22 22:07:00,
2013-04-22 18:12:00,64.4,43.9,30.00,NE,44,5.4,5.4,47,0.00,,---,0.00,VWS V14.01,2013-04-22 22:12:00,
2013-04-22 18:17:00,64.4,43.3,30.00,NE,45,5.4,5.4,46,0.00,,---,0.00,VWS V14.01,2013-04-22 22:17:00,
2013-04-22 18:22:00,64.6,43.5,30.00,NNE,27,5.8,5.8,46,0.00,,---,0.00,VWS V14.01,2013-04-22 22:22:00,
2013-04-22 18:27:00,64.6,42.9,30.00,NE,35,4.0,5.4,45,0.00,,---,0.00,VWS V14.01,2013-04-22 22:27:00,
2013-04-22 18:32:00,64.8,43.0,30.00,NNE,12,8.7,8.7,45,0.00,,---,0.00,VWS V14.01,2013-04-22 22:32:00,
2013-04-22 18:37:00,64.4,42.7,30.00,East,79,5.4,5.8,45,0.00,,---,0.00,VWS V14.01,2013-04-22 22:37:00,
2013-04-22 18:42:00,64.2,42.5,30.00,NNE,26,5.8,9.2,45,0.00,,---,0.00,VWS V14.01,2013-04-22 22:42:00,
2013-04-22 18:47:00,64.0,43.6,30.00,NNE,23,5.8,5.8,47,0.00,,---,0.00,VWS V14.01,2013-04-22 22:47:00,
2013-04-22 18:52:00,63.5,42.5,30.00,East,79,3.1,4.0,46,0.00,,---,0.00,VWS V14.01,2013-04-22 22:52:00,
2013-04-22 18:57:00,63.5,40.7,30.00,NNE,31,3.6,3.6,43,0.00,,---,0.00,VWS V14.01,2013-04-22 22:57:00,
2013-04-22 19:02:00,63.3,41.1,30.00,NNE,31,3.1,8.3,44,0.00,,---,0.00,VWS V14.01,2013-04-22 23:02:00,
2013-04-22 19:07:00,63.0,40.8,30.00,ENE,63,0.0,4.0,44,0.00,,---,0.00,VWS V14.01,2013-04-22 23:07:00,
2013-04-22 19:12:00,63.1,41.6,30.00,NNE,25,6.3,6.3,45,0.00,,---,0.00,VWS V14.01,2013-04-22 23:12:00,
2013-04-22 19:17:00,62.8,41.2,30.00,ENE,64,7.2,8.7,45,0.00,,---,0.00,VWS V14.01,2013-04-22 23:17:00,
2013-04-22 19:22:00,62.6,41.1,30.00,NE,56,3.6,3.6,45,0.00,,---,0.00,VWS V14.01,2013-04-22 23:22:00,
2013-04-22 19:27:00,62.4,41.5,30.00,NE,55,3.1,3.1,46,0.00,,---,0.00,VWS V14.01,2013-04-22 23:27:00,
2013-04-22 19:32:00,62.2,42.5,30.00,North,11,3.6,6.3,48,0.00,,---,0.00,VWS V14.01,2013-04-22 23:32:00,
2013-04-22 19:37:00,62.1,42.9,30.00,East,81,5.4,5.4,49,0.00,,---,0.00,VWS V14.01,2013-04-22 23:37:00,
2013-04-22 19:42:00,62.1,42.9,30.00,NE,45,5.8,5.8,49,0.00,,---,0.00,VWS V14.01,2013-04-22 23:42:00,
2013-04-22 19:47:00,61.9,42.2,30.00,NE,44,5.4,6.3,48,0.00,,---,0.00,VWS V14.01,2013-04-22 23:47:00,
2013-04-22 19:52:00,61.9,42.2,30.00,North,9,8.3,8.3,48,0.00,,---,0.00,VWS V14.01,2013-04-22 23:52:00,
2013-04-22 19:57:00,61.9,42.7,30.00,North,353,4.9,7.6,49,0.00,,---,0.00,VWS V14.01,2013-04-22 23:57:00,
2013-04-22 20:02:00,61.7,42.0,30.00,ENE,65,3.1,3.1,48,0.00,,---,0.00,VWS V14.01,2013-04-23 00:02:00,
2013-04-22 20:07:00,61.7,42.0,30.00,NE,35,2.7,4.0,48,0.00,,---,0.00,VWS V14.01,2013-04-23 00:07:00,
2013-04-22 20:12:00,61.7,41.4,30.00,ENE,72,3.1,6.3,47,0.00,,---,0.00,VWS V14.01,2013-04-23 00:12:00,
2013-04-22 20:17:00,61.7,42.0,30.00,NNE,25,3.6,4.0,48,0.00,,---,0.00,VWS V14.01,2013-04-23 00:17:00,
2013-04-22 20:22:00,61.5,42.4,30.00,ENE,77,2.7,4.9,49,0.00,,---,0.00,VWS V14.01,2013-04-23 00:22:00,
2013-04-22 20:27:00,61.5,42.9,30.00,ENE,67,3.1,5.4,50,0.00,,---,0.00,VWS V14.01,2013-04-23 00:27:00,
2013-04-22 20:32:00,61.3,42.8,30.00,North,9,4.0,4.5,50,0.00,,---,0.00,VWS V14.01,2013-04-23 00:32:00,
2013-04-22 20:37:00,61.3,42.8,30.00,NE,53,3.6,5.4,50,0.00,,---,0.00,VWS V14.01,2013-04-23 00:37:00,
2013-04-22 20:42:00,61.3,42.8,30.00,NE,38,2.2,3.6,50,0.00,,---,0.00,VWS V14.01,2013-04-23 00:42:00,
2013-04-22 20:47:00,61.3,43.3,30.00,NE,54,2.7,3.1,51,0.00,,---,0.00,VWS V14.01,2013-04-23 00:47:00,
2013-04-22 20:52:00,61.2,43.7,30.00,ENE,57,4.0,4.0,52,0.00,,---,0.00,VWS V14.01,2013-04-23 00:52:00,
2013-04-22 20:57:00,61.2,43.7,30.00,ENE,67,0.0,0.0,52,0.00,,---,0.00,VWS V14.01,2013-04-23 00:57:00,
2013-04-22 21:02:00,61.3,43.8,30.00,ENE,63,2.7,4.9,52,0.00,,---,0.00,VWS V14.01,2013-04-23 01:02:00,
2013-04-22 21:07:00,61.3,44.3,30.00,NE,52,3.6,6.3,54,0.00,,---,0.00,VWS V14.01,2013-04-23 01:07:00,
2013-04-22 21:12:00,61.3,44.9,30.03,North,357,2.7,4.9,55,0.00,,---,0.00,VWS V14.01,2013-04-23 01:12:00,
2013-04-22 21:17:00,61.3,44.3,30.03,East,82,4.0,4.0,54,0.00,,---,0.00,VWS V14.01,2013-04-23 01:17:00,
2013-04-22 21:22:00,61.3,44.3,30.03,NE,54,4.9,4.9,54,0.00,,---,0.00,VWS V14.01,2013-04-23 01:22:00,
2013-04-22 21:27:00,61.5,44.5,30.03,East,87,4.0,4.9,54,0.00,,---,0.00,VWS V14.01,2013-04-23 01:27:00,
2013-04-22 21:32:00,61.5,43.5,30.03,NE,52,3.1,3.1,51,0.00,,---,0.00,VWS V14.01,2013-04-23 01:32:00,
2013-04-22 21:37:00,61.5,43.5,30.03,NNE,30,5.8,5.8,51,0.00,,---,0.00,VWS V14.01,2013-04-23 01:37:00,
2013-04-22 21:42:00,61.7,43.6,30.03,ENE,74,2.7,5.8,51,0.00,,---,0.00,VWS V14.01,2013-04-23 01:42:00,
2013-04-22 21:47:00,61.7,42.5,30.03,ENE,64,8.1,8.1,49,0.00,,---,0.00,VWS V14.01,2013-04-23 01:47:00,
2013-04-22 21:52:00,61.9,42.7,30.03,ENE,67,3.1,6.3,49,0.00,,---,0.00,VWS V14.01,2013-04-23 01:52:00,
2013-04-22 21:57:00,62.2,43.0,30.03,NE,53,4.0,4.0,49,0.00,,---,0.00,VWS V14.01,2013-04-23 01:57:00,
2013-04-22 22:02:00,62.2,43.6,30.03,NE,49,7.6,7.6,50,0.00,,---,0.00,VWS V14.01,2013-04-23 02:02:00,
2013-04-22 22:07:00,62.2,44.7,30.03,NE,36,2.7,6.3,52,0.00,,---,0.00,VWS V14.01,2013-04-23 02:07:00,
2013-04-22 22:12:00,62.2,44.7,30.03,ENE,64,5.8,7.6,52,0.00,,---,0.00,VWS V14.01,2013-04-23 02:12:00,
2013-04-22 22:17:00,62.4,45.3,30.03,ENE,78,3.6,4.9,54,0.00,,---,0.00,VWS V14.01,2013-04-23 02:17:00,
2013-04-22 22:22:00,62.2,44.7,30.03,North,10,4.9,8.1,52,0.00,,---,0.00,VWS V14.01,2013-04-23 02:22:00,
2013-04-22 22:27:00,62.6,44.5,30.03,NNE,12,4.0,5.8,51,0.00,,---,0.00,VWS V14.01,2013-04-23 02:27:00,
2013-04-22 22:32:00,62.6,44.5,30.03,ENE,77,4.9,9.2,51,0.00,,---,0.00,VWS V14.01,2013-04-23 02:32:00,
2013-04-22 22:37:00,62.6,45.0,30.03,NNE,24,2.7,3.6,52,0.00,,---,0.00,VWS V14.01,2013-04-23 02:37:00,
2013-04-22 22:42:00,62.6,45.0,30.03,ENE,74,5.4,5.8,52,0.00,,---,0.00,VWS V14.01,2013-04-23 02:42:00,
2013-04-22 22:47:00,62.6,45.0,30.03,NE,48,5.4,7.6,52,0.00,,---,0.00,VWS V14.01,2013-04-23 02:47:00,
2013-04-22 22:52:00,62.6,45.0,30.03,NNE,19,8.7,8.7,52,0.00,,---,0.00,VWS V14.01,2013-04-23 02:52:00,
2013-04-22 22:57:00,62.6,45.5,30.03,ENE,58,3.6,5.8,54,0.00,,---,0.00,VWS V14.01,2013-04-23 02:57:00,
2013-04-22 23:02:00,62.6,45.5,30.03,NNE,27,6.3,8.3,54,0.00,,---,0.00,VWS V14.01,2013-04-23 03:02:00,
2013-04-22 23:07:00,62.6,46.5,30.03,ENE,61,3.6,5.4,56,0.00,,---,0.00,VWS V14.01,2013-04-23 03:07:00,
2013-04-22 23:12:00,62.2,46.7,30.03,NNE,30,2.2,3.1,57,0.00,,---,0.00,VWS V14.01,2013-04-23 03:12:00,
2013-04-22 23:17:00,62.2,47.7,30.03,ENE,75,6.3,6.3,59,0.00,,---,0.00,VWS V14.01,2013-04-23 03:17:00,
2013-04-22 23:22:00,62.1,47.5,30.03,NNE,18,7.6,7.6,59,0.00,,---,0.00,VWS V14.01,2013-04-23 03:22:00,
2013-04-22 23:27:00,62.1,47.5,30.03,ENE,57,3.1,4.0,59,0.00,,---,0.00,VWS V14.01,2013-04-23 03:27:00,
2013-04-22 23:32:00,62.1,48.0,30.03,ENE,64,3.1,3.1,60,0.00,,---,0.00,VWS V14.01,2013-04-23 03:32:00,
2013-04-22 23:37:00,62.1,47.0,30.03,North,357,3.6,8.7,58,0.00,,---,0.00,VWS V14.01,2013-04-23 03:37:00,
2013-04-22 23:42:00,62.2,47.2,30.03,NE,36,4.9,8.3,58,0.00,,---,0.00,VWS V14.01,2013-04-23 03:42:00,
2013-04-22 23:47:00,62.4,46.9,30.03,NE,34,4.0,6.3,57,0.00,,---,0.00,VWS V14.01,2013-04-23 03:47:00,
2013-04-22 23:52:00,62.2,46.7,30.03,ENE,78,2.7,3.1,57,0.00,,---,0.00,VWS V14.01,2013-04-23 03:52:00,
2013-04-22 23:57:00,62.2,47.2,30.03,North,9,8.1,8.1,58,0.00,,---,0.00,VWS V14.01,2013-04-23 03:57:00,